Location: Cantaing
(50.1487°N, 3.1675°E)
Time: 22:17:05
(UTC+00:00)

Cosmos 2082 Rocket - Pass Details

Date: 20 April 2026
Orbit: 831 x 853 km, 71.0° (Epoch: 19 May)

Event Time Altitude Azimuth Distance (km) Brightness Sun altitude
Exits shadow 03:10:53 13° 270° (W) 2,306 4.0 -13.9°
Maximum altitude 03:14:52 25° 319° (NW) 1,679 3.7 -13.4°
Drops below altitude 10° 03:19:30 10° 13° (NNE) 2,494 5.4 -12.8°
Sets 03:22:27 0° 27° (NNE) 3,432 6.6 -12.5°
